Location: Blazny
(46.0612°N, 84.4033°W)
Time: 10:36:43
(UTC-04:00)

ARIANE 6 FM1 Upper Stage - Pass Details

Date: 19 September 2024
Orbit: 564 x 594 km, 62.0° (Epoch: 03 October)

Event Time Altitude Azimuth Distance (km) Brightness Sun altitude
Rises 20:34:21 0° 176° (S) 2,767 6.0 -10.2°
Reaches altitude 10° 20:37:13 10° 155° (SSE) 1,881 5.0 -10.7°
Maximum altitude 20:39:56 17° 115° (ESE) 1,508 4.2 -11.1°
Enters shadow 20:40:31 16° 105° (ESE) 1,531 4.2 -11.2°
